2023/03/01 00:00:00,69.0,-0.1
2023/03/01 00:10:00,69.0, 0.0
2023/03/01 00:20:00,69.0, 0.3
2023/03/01 00:30:00,69.0, 0.2
2023/03/01 00:40:00,69.0, 0.1
2023/03/01 00:50:00,69.0, 0.3
2023/03/01 01:00:00,69.0, 0.4
2023/03/01 01:10:00,68.9, 0.3
2023/03/01 01:20:00,68.9, 0.3
2023/03/01 01:30:00,68.9, 0.6
2023/03/01 01:40:00,68.9, 0.6
2023/03/01 01:50:00,68.9, 0.8
2023/03/01 02:00:00,68.9, 0.5
2023/03/01 02:10:00,68.9, 0.7
2023/03/01 02:20:00,69.0, 0.9
2023/03/01 02:30:00,69.1, 1.0
2023/03/01 02:40:00,69.2, 1.0
2023/03/01 02:50:00,69.2, 1.0
2023/03/01 03:00:00,69.2, 1.1
2023/03/01 03:10:00,69.2, 1.5
2023/03/01 03:20:00,69.2, 1.1
2023/03/01 03:30:00,69.3, 1.0
2023/03/01 03:40:00,69.3, 1.0
2023/03/01 03:50:00,69.2, 0.5
2023/03/01 04:00:00,69.1, 0.9
2023/03/01 04:10:00,69.0, 1.1
2023/03/01 04:20:00,68.9, 0.8
2023/03/01 04:30:00,68.8, 0.4
2023/03/01 04:40:00,68.8, 0.8
2023/03/01 04:50:00,68.8, 0.8
2023/03/01 05:00:00,68.8, 0.7
2023/03/01 05:10:00,68.8, 0.6
2023/03/01 05:20:00,68.8, 0.6
2023/03/01 05:30:00,68.8, 0.6
2023/03/01 05:40:00,68.8, 0.5
2023/03/01 05:50:00,68.7, 0.3
2023/03/01 06:00:00,68.8, 0.3
2023/03/01 06:10:00,68.7, 0.4
2023/03/01 06:20:00,68.7, 0.3
2023/03/01 06:30:00,68.8, 0.5
2023/03/01 06:40:00,68.7, 0.3
2023/03/01 06:50:00,68.7, 0.3
2023/03/01 07:00:00,68.7, 0.4
2023/03/01 07:10:00,68.7, 0.8
2023/03/01 07:20:00,68.7, 0.7
2023/03/01 07:30:00,68.7, 0.6
2023/03/01 07:40:00,68.7, 1.2
2023/03/01 07:50:00,68.7, 1.7
2023/03/01 08:00:00,68.7, 2.2
2023/03/01 08:10:00,68.7, 3.3
2023/03/01 08:20:00,68.2, 4.3
2023/03/01 08:30:00,68.0, 5.7
2023/03/01 08:40:00,68.0, 7.1
2023/03/01 08:50:00,67.9, 8.7
2023/03/01 09:00:00,67.8,10.2
2023/03/01 09:10:00,67.8,11.0
2023/03/01 09:20:00,67.9,12.4
2023/03/01 09:30:00,67.7,12.5
2023/03/01 09:40:00,68.1,13.8
2023/03/01 09:50:00,67.9,13.9
2023/03/01 10:00:00,67.5,13.9
2023/03/01 10:10:00,67.5,12.8
2023/03/01 10:20:00,67.7,11.6
2023/03/01 10:30:00,67.4,12.4
2023/03/01 10:40:00,66.9,14.1
2023/03/01 10:50:00,67.1,14.1
2023/03/01 11:00:00,67.3,12.9
2023/03/01 11:10:00,67.4,12.8
2023/03/01 11:20:00,67.3,13.2
2023/03/01 11:30:00,67.3,13.0
2023/03/01 11:40:00,67.1,12.6
2023/03/01 11:50:00,66.9,13.9
2023/03/01 12:00:00,66.8,14.1
2023/03/01 12:10:00,66.2,14.2
2023/03/01 12:20:00,65.4,18.2
2023/03/01 12:30:00,65.3,17.6
2023/03/01 12:40:00,65.9,14.4
2023/03/01 12:50:00,65.9,14.2
2023/03/01 13:00:00,65.5,15.3
2023/03/01 13:10:00,65.2,15.5
2023/03/01 13:20:00,65.0,15.5
2023/03/01 13:30:00,65.2,15.9
2023/03/01 13:40:00,65.3,14.4
2023/03/01 13:50:00,65.4,14.1
2023/03/01 14:00:00,65.3,13.4
2023/03/01 14:10:00,65.1,13.4
2023/03/01 14:20:00,64.9,13.3
2023/03/01 14:30:00,64.8,13.0
2023/03/01 14:40:00,64.8,11.8
2023/03/01 14:50:00,64.7,12.0
2023/03/01 15:00:00,64.7,12.7
2023/03/01 15:10:00,64.6,13.0
2023/03/01 15:20:00,64.3,13.6
2023/03/01 15:30:00,64.4,13.5
2023/03/01 15:40:00,64.6,12.7
2023/03/01 15:50:00,64.3,13.7
2023/03/01 16:00:00,64.1,12.9
2023/03/01 16:10:00,64.2,12.3
2023/03/01 16:20:00,64.3,12.8
2023/03/01 16:30:00,64.0,14.7
2023/03/01 16:40:00,64.1,12.8
2023/03/01 16:50:00,64.0,11.3
2023/03/01 17:00:00,64.1, 9.8
2023/03/01 17:10:00,64.2, 8.9
2023/03/01 17:20:00,64.2, 8.4
2023/03/01 17:30:00,64.3, 8.1
2023/03/01 17:40:00,64.2, 7.6
2023/03/01 17:50:00,64.2, 7.0
2023/03/01 18:00:00,64.3, 6.4
2023/03/01 18:10:00,64.2, 6.0
2023/03/01 18:20:00,64.3, 5.7
2023/03/01 18:30:00,64.4, 5.6
2023/03/01 18:40:00,64.2, 6.2
2023/03/01 18:50:00,64.1, 6.5
2023/03/01 19:00:00,64.0, 6.8
2023/03/01 19:10:00,64.0, 7.0
2023/03/01 19:20:00,63.7, 7.3
2023/03/01 19:30:00,63.4, 7.0
2023/03/01 19:40:00,63.0, 6.6
2023/03/01 19:50:00,63.1, 6.3
2023/03/01 20:00:00,63.1, 6.6
2023/03/01 20:10:00,63.0, 6.4
2023/03/01 20:20:00,63.0, 6.1
2023/03/01 20:30:00,62.5, 5.8
2023/03/01 20:40:00,62.2, 5.7
2023/03/01 20:50:00,62.0, 5.2
2023/03/01 21:00:00,62.1, 4.8
2023/03/01 21:10:00,62.1, 4.4
2023/03/01 21:20:00,62.1, 4.4
2023/03/01 21:30:00,62.1, 4.5
2023/03/01 21:40:00,62.2, 4.5
2023/03/01 21:50:00,62.1, 4.3
2023/03/01 22:00:00,61.8, 4.5
2023/03/01 22:10:00,61.9, 4.3
2023/03/01 22:20:00,61.9, 4.4
2023/03/01 22:30:00,61.7, 4.4
2023/03/01 22:40:00,61.6, 4.6
2023/03/01 22:50:00,61.6, 4.0
2023/03/01 23:00:00,61.7, 3.9
2023/03/01 23:10:00,61.7, 4.6
2023/03/01 23:20:00,61.6, 4.4
2023/03/01 23:30:00,61.6, 4.6
2023/03/01 23:40:00,61.5, 4.3
2023/03/01 23:50:00,61.3, 4.2
